Vineland (AU8), Ontario

9:14 AM EDT on June 27, 2017 (GMT -0400)
Vineland (AU8)

Weather History for CXVN - May, 2013

Change the Weather History Date:

Wednesday, May 22, 2013

  Actual Average (CYSN) Record (CYSN)
Temperature  
Mean Temperature 68 °F -  
Max Temperature 85 °F 63 °F 86 °F (2013)
Min Temperature 51 °F 46 °F 37 °F (1997)
Cooling Degree Days 3    
Growing Degree Days 18 (Base 50)    
Moisture  
Dew Point 56 °F    
Average Humidity 75    
Maximum Humidity 97    
Minimum Humidity 42    
Precipitation  
Precipitation 0.00 in - - ()
Sea Level Pressure  
Sea Level Pressure 29.70 in    
Wind  
Wind Speed 5 mph ()    
Max Wind Speed 17 mph    
Max Gust Speed 25 mph    
Averages and records for this station are not official NWS values.
T = Trace of Precipitation, MM = Missing Value Source: Averaged Metar Reports

Daily Weather History Graph

Daily Weather History Graph

Search for Another Location

Airport or City:

Trip Planner

Search our weather history database for the weather conditions in past years. The results will help you decide how hot, cold, wet, or windy it might be!

Date:

Astronomy

May. 22, 2013 Rise Set
Actual Time 5:47 AM EDT 8:42 PM EDT
Civil Twilight 5:13 AM EDT 9:15 PM EDT
Nautical Twilight 4:30 AM EDT 9:58 PM EDT
Astronomical Twilight 3:41 AM EDT 10:48 PM EDT
Moon 5:58 PM EDT (5/22) 3:54 AM EDT (5/22)
Length of Visible Light 16h 02m
Length of Day
14h 54m
Waxing Gibbous, 91% of the Moon is Illuminated
May 22
Waxing Gibbous
May 25
Full
May 31
Last Quarter
Jun 8
New
Jun 16
First Quarter

Hourly Weather History & Observations

Time (EDT) Temp. Heat Index Dew Point Humidity Pressure Visibility Wind Dir Wind Speed Gust Speed Precip Events Conditions
12:00 AM 57.0 °F - 55.2 °F 94% 29.73 in - SW 2.3 mph - N/A   Unknown
1:00 AM 54.0 °F - 52.2 °F 94% 29.75 in - NNE 6.9 mph - N/A   Unknown
2:00 AM 53 °F - 52 °F 95% 29.73 in - WNW 1.2 mph - -  
2:00 AM 53.1 °F - 52.0 °F 96% 29.73 in - WNW 1.2 mph - N/A   Unknown
3:00 AM 53.6 °F - 52.7 °F 97% 29.73 in - WSW 2.3 mph - N/A   Unknown
4:00 AM 53.6 °F - 52.7 °F 97% 29.73 in - WNW 2.3 mph - N/A   Unknown
5:00 AM 54.7 °F - 53.8 °F 97% 29.73 in - SW 3.5 mph - N/A   Unknown
6:00 AM 53.8 °F - 53.1 °F 97% 29.74 in - NW 3.5 mph - N/A   Unknown
7:00 AM 51.8 °F - 51.1 °F 97% 29.76 in - WNW 3.5 mph - N/A   Unknown
8:00 AM 54 °F - 53 °F 95% 29.75 in - NW 3.5 mph - -  
8:00 AM 53.6 °F - 52.9 °F 97% 29.75 in - NW 3.5 mph - N/A   Unknown
9:00 AM 58.1 °F - 57.4 °F 97% 29.76 in - North 1.2 mph - N/A   Unknown
10:00 AM 56.1 °F - 55.2 °F 97% 29.75 in - North 3.5 mph - N/A   Unknown
11:00 AM 59.9 °F - 56.3 °F 88% 29.75 in - North 3.5 mph - N/A   Unknown
12:00 PM 60.3 °F - 56.1 °F 86% 29.75 in - NNE 3.5 mph - N/A   Unknown
1:00 PM 75.2 °F - 62.6 °F 65% 29.72 in - WSW 9.2 mph - N/A   Unknown
2:00 PM 80 °F - 63 °F 47% 29.69 in - WSW 13.8 mph - -  
2:00 PM 80.1 °F 81.5 °F 63.3 °F 56% 29.69 in - WSW 13.8 mph - N/A   Unknown
3:00 PM 83.1 °F 83.9 °F 62.4 °F 49% 29.66 in - SW 13.8 mph 20.7 mph N/A   Unknown
4:00 PM 84.4 °F 84.6 °F 60.8 °F 45% 29.63 in - SW 17.3 mph 25.3 mph N/A   Unknown
5:00 PM 85.3 °F 85.0 °F 59.5 °F 42% 29.61 in - SW 13.8 mph - N/A   Unknown
6:00 PM 83.1 °F 82.7 °F 57.9 °F 42% 29.59 in - SW 13.8 mph 23.0 mph N/A   Unknown
7:00 PM 81.7 °F 81.8 °F 58.6 °F 45% 29.60 in - West 15.0 mph - N/A   Unknown
8:00 PM 66 °F - 55 °F 59% 29.63 in - NNW 4.6 mph - -  
8:00 PM 65.7 °F - 54.9 °F 68% 29.63 in - NNW 4.6 mph - N/A   Unknown
9:00 PM 75.7 °F - 57.6 °F 53% 29.63 in - WSW 8.1 mph - N/A   Unknown
10:00 PM 73.8 °F - 57.0 °F 56% 29.62 in - WSW 6.9 mph - N/A   Unknown
11:00 PM 73.9 °F - 56.8 °F 55% 29.64 in - SW 8.1 mph - N/A   Unknown